Simultaneous Nadir Overpasses (SNOs) Predictions

Prediction of SNOs between GOES-17 and NOAA-20 Satellite Orbit:

Table of predicted SNOs for the next 14.0 days since TLE Epoch: 6/4/2022
Index Date Time (GOES-17) GOES-17 Lat,Lon NOAA-20 Lat,Lon Distance(km) Time Diff (sec)
1 06/04/2022 10:18:54 -0.00,-137.20 -0.77,-133.83 383.89 80
2 06/05/2022 22:43:29 -0.00,-137.19 -0.45,-139.13 220.92 80
3 06/06/2022 22:22:05 0.00,-137.19 0.59,-134.60 295.36 80
4 06/08/2022 10:46:31 0.01,-137.19 0.63,-139.86 304.85 80
5 06/09/2022 10:25:06 0.00,-137.19 -0.42,-135.34 211.08 80
6 06/10/2022 22:49:42 -0.01,-137.18 -0.80,-140.64 394.91 80
7 06/11/2022 22:28:17 0.00,-137.17 0.24,-136.11 120.41 80
8 06/13/2022 10:52:44 -0.00,-137.15 0.97,-141.37 481.65 80
9 06/14/2022 10:31:19 -0.01,-137.14 -0.08,-136.85 32.98 80
10 06/16/2022 22:34:30 0.01,-137.08 -0.09,-137.62 60.72 80
11 06/17/2022 22:18:24 0.01,-137.06 0.90,-133.08 453.62 80
